Location: Skalnate Pleso
(49.1889°N, 20.2450°E)
Time: 09:54:02
(UTC+01:00)

Lacrosse 5 - Pass Details

Date: 19 November 2019
Orbit: 715 x 724 km, 57.0° (Epoch: 04 December)

Event Time Altitude Azimuth Distance (km) Brightness Sun altitude
Exits shadow 04:00:40 48° 22° (NNE) 939 2.5 -28.1°
Drops below altitude 10° 04:04:35 10° 53° (NE) 2,205 5.0 -27.5°
Sets 04:07:00 0° 58° (ENE) 3,126 6.0 -27.1°
